STARLINK-31143, 58770

Orbit data source: Space-Track

STARLINK-31143, 58770 is a payload satellite owned by SpaceX/Seattle (US) in LEO that was launched on Sun, 14 Jan 2024 UTC via an FALCON 9 launch vehicle from the Air Force Western Test Range (AFWTR). Payload-class satellites include a variety of spacecraft equipped with specific instruments for various scientific and technological missions. These include communications satellites like Starlink; space stations such as the ISS; scientific satellites like the Hubble; Earth observation satellites from companies like Planet Labs, Umbra, and HawkEye 360; GPS; miniature CubeSats for education and research; and military/defense satellites.

Loading next visibility...
Identifier
58770, 2024-011F
Orbit
LEO
Country
Flag of USUS
Related business
Manufacturer
SpaceX/Seattle
Mission
Operational Commercial Communications
Bus & Motor
STARLINK V2M, Unknown motor
Mass
730 kg wet, ~700 kg dry
Launch date (UTC)
2024-01-14 (2 years ago)
Launch vehicle
FALCON 9
Launch site
Air Force Western Test Range (AFWTR)
Object type
Payload
Rocket body
Debris
Shape & HBR
Box + 2 Pan, 17.7 m
Radar Cross Section
33.884 m², Large (>1 m²)

Expand to show TLE details & history
Last TLE update: 4 days ago

TLE from 4 days ago
0 STARLINK-31143
1 58770U 24011F   26169.22157463  .00001298  00000-0  55953-4 0  9990
2 58770  53.1625 266.6183 0001501 110.8787 249.2375 15.30193975135668
Epoch: 2026-06-18T05:19Z
TLE epoch observation values (Epoch: 2026-06-18T05:19:04.048Z)
Latitude
0.00003°
Longitude
-79.61655°
Altitude
476.498 km
Speed
7.629 km/s
True Right ascension
17h 46m 28s
True Declination
0° 00' 00"
Sunlit
Object was in full shadow at epoch
Visualization orbit readout
Latitude
Unknown
Longitude
Unknown
Altitude
Unknown
Speed
Unknown
Apparent Right ascension
Unknown
Apparent Declination
Unknown
Sunlit
N/A
Visualization observer readout
Local Sidereal Time
23:08:50
Azimuth
Unknown
Elevation
Unknown
Doppler factor
Unknown
Orbital elements
Apogee altitude
476.518 km
Perigee altitude
474.46 km
Semi-major axis
6,853.626 km
Eccentricity
0.00015
Inclination
53.1625°
RAAN
266.6183°
Arg. of periapsis
110.8787°
True anomaly
249.22142°
Mean anomaly
249.2375°
Eccentric anomaly
249.22946°
Mean motion
3.82527 °/min
Orbital period
94.11 mins
BSTAR
0.000055953
Loading maneuver chart data...
Computing Atmospheric mass density...
Loading historical data...
Loading historical data...
Loading historical data...
Loading historical data...
Loading historical data...
Loading historical data...
Loading historical data...

Documentation

Showing up to 5 results
|